OK9CPU-9 Weather Reports


time (UTC)temp
F
wind
direction
speed
knots
gust
knots
rain 1hr
in
rain 24hr
in
rain mn
in
humidity
%
barometer
mb
20260503053026 76 0.0 0.0 0.00 0.00 0.00 15 1019.3
20260503051359 71 0.0 0.0 0.00 0.00 0.00 16 1019.3
20260503045716 65 0.0 0.0 0.00 0.00 0.00 17 1019.3
20260503044041 59 0.0 0.0 0.00 0.00 0.00 18 1019.5
20260503042406 52 0.0 0.0 0.00 0.00 0.00 22 1019.4
20260503040731 46 0.0 0.0 0.00 0.00 0.00 25 1019.4
20260503035056 44 0.0 0.0 0.00 0.00 0.00 25 1019.4
20260503033421 43 0.0 0.0 0.00 0.00 0.00 26 1019.4
20260503031746 43 0.0 0.0 0.00 0.00 0.00 26 1019.3
20260503030111 43 0.0 0.0 0.00 0.00 0.00 26 1019.3
20260503024443 43 0.0 0.0 0.00 0.00 0.00 27 1019.3
20260503022801 43 0.0 0.0 0.00 0.00 0.00 27 1019.5
20260503021134 44 0.0 0.0 0.00 0.00 0.00 27 1019.4
20260503015451 43 0.0 0.0 0.00 0.00 0.00 27 1019.4
20260503013823 44 0.0 0.0 0.00 0.00 0.00 27 1019.4
20260503012148 44 0.0 0.0 0.00 0.00 0.00 27 1019.3
20260503010506 45 0.0 0.0 0.00 0.00 0.00 27 1019.3
20260503004831 46 0.0 0.0 0.00 0.00 0.00 27 1019.2
20260503003156 47 0.0 0.0 0.00 0.00 0.00 27 1019.2
20260503001521 47 0.0 0.0 0.00 0.00 0.00 27 1019.2
20260502235846 48 0.0 0.0 0.00 0.00 0.00 27 1019.1
20260502234211 48 0.0 0.0 0.00 0.00 0.00 27 1019.3
20260502232536 48 0.0 0.0 0.00 0.00 0.00 28 1019.4
20260502230908 49 0.0 0.0 0.00 0.00 0.00 28 1019.3
20260502225233 49 0.0 0.0 0.00 0.00 0.00 28 1019.4
20260502223551 50 0.0 0.0 0.00 0.00 0.00 28 1019.5
20260502221923 50 0.0 0.0 0.00 0.00 0.00 28 1019.7
20260502220241 51 0.0 0.0 0.00 0.00 0.00 28 1019.7
20260502214606 51 0.0 0.0 0.00 0.00 0.00 28 1019.7
20260502212938 52 0.0 0.0 0.00 0.00 0.00 28 1019.7
20260502211255 53 0.0 0.0 0.00 0.00 0.00 29 1019.8
20260502205620 54 0.0 0.0 0.00 0.00 0.00 29 1019.8
20260502203945 55 0.0 0.0 0.00 0.00 0.00 29 1020.0
20260502202310 56 0.0 0.0 0.00 0.00 0.00 29 1020.0
20260502200643 56 0.0 0.0 0.00 0.00 0.00 29 1020.1
20260502195000 57 0.0 0.0 0.00 0.00 0.00 29 1020.1
20260502193325 58 0.0 0.0 0.00 0.00 0.00 29 1020.1
20260502191650 60 0.0 0.0 0.00 0.00 0.00 29 1020.0
20260502184340 63 0.0 0.0 0.00 0.00 0.00 29 1019.8
20260502182705 64 0.0 0.0 0.00 0.00 0.00 28 1019.7
20260502181030 66 0.0 0.0 0.00 0.00 0.00 28 1019.4
20260502170417 72 0.0 0.0 0.00 0.00 0.00 26 1019.5
20260502163107 75 0.0 0.0 0.00 0.00 0.00 26 1019.9
20260502161425 76 0.0 0.0 0.00 0.00 0.00 25 1019.9
20260502150812 88 0.0 0.0 0.00 0.00 0.00 20 1020.7
20260502122222 95 0.0 0.0 0.00 0.00 0.00 17 1022.4
20260502120547 95 0.0 0.0 0.00 0.00 0.00 16 1022.6
20260502114912 95 0.0 0.0 0.00 0.00 0.00 16 1022.8
20260502113229 96 0.0 0.0 0.00 0.00 0.00 15 1022.9
20260502111554 97 0.0 0.0 0.00 0.00 0.00 14 1023.1
20260502105927 97 0.0 0.0 0.00 0.00 0.00 14 1023.5
20260502104251 95 0.0 0.0 0.00 0.00 0.00 12 1023.7
20260502102609 101 0.0 0.0 0.00 0.00 0.00 12 1023.8
20260502100941 94 0.0 0.0 0.00 0.00 0.00 13 1024.1
20260502065041 88 0.0 0.0 0.00 0.00 0.00 16 1025.4
20260502063359 84 0.0 0.0 0.00 0.00 0.00 16 1025.5
20260502061731 81 0.0 0.0 0.00 0.00 0.00 16 1025.6
20260502060056 76 0.0 0.0 0.00 0.00 0.00 16 1025.6